Jackson, WY

3:44 AM MDT on June 28, 2017 (GMT -0600)
Jackson Hole

Weather History for KJAC - January, 2012

Change the Weather History Date:

Monday, January 9, 2012

  Actual Average Record
Temperature  
Mean Temperature 24 °F -  
Max Temperature 26 °F 22 °F 38 °F (1990)
Min Temperature 21 °F -1 °F -36 °F (1979)
Degree Days  
Heating Degree Days 42    
Moisture  
Dew Point 20 °F    
Average Humidity 86    
Maximum Humidity 93    
Minimum Humidity 74    
Precipitation  
Precipitation 0.00 in - - ()
Sea Level Pressure  
Sea Level Pressure 30.36 in    
Wind  
Wind Speed 1 mph (North)    
Max Wind Speed 9 mph    
Max Gust Speed -    
Visibility 8 miles    
Events      
Averages and records for this station are not official NWS values.
T = Trace of Precipitation, MM = Missing Value Source: NWS Daily Summary

Daily Weather History Graph

Daily Weather History Graph

Search for Another Location

Airport or City:

Trip Planner

Search our weather history database for the weather conditions in past years. The results will help you decide how hot, cold, wet, or windy it might be!

Date:

Astronomy

Jan. 09, 2012 Rise Set
Actual Time 7:55 AM MST 5:04 PM MST
Civil Twilight 7:23 AM MST 5:36 PM MST
Nautical Twilight 6:47 AM MST 6:12 PM MST
Astronomical Twilight 6:13 AM MST 6:47 PM MST
Moon 5:56 PM MST (1/9) 7:56 AM MST (1/9)
Length of Visible Light 10h 13m
Length of Day
9h 08m
Full, 100% of the Moon is Illuminated
Jan 9
Full
Jan 16
Last Quarter
Jan 23
New
Jan 30
First Quarter
Feb 7
Full

Hourly Weather History & Observations

Time (MST) Temp. Windchill Dew Point Humidity Pressure Visibility Wind Dir Wind Speed Gust Speed Precip Events Conditions
12:15 AM 21.2 °F - 17.6 °F 86% 30.38 in 10.0 mi Calm Calm - N/A   Overcast
12:55 AM 21.2 °F - 17.6 °F 86% 30.38 in 10.0 mi Calm Calm - N/A   Overcast
1:15 AM 21.2 °F - 17.6 °F 86% 30.38 in 10.0 mi Calm Calm - N/A   Overcast
1:35 AM 21.2 °F - 17.6 °F 86% 30.39 in 10.0 mi Calm Calm - N/A   Overcast
1:56 AM 21.2 °F 16.4 °F 17.6 °F 86% 30.39 in 10.0 mi South 3.5 mph - N/A   Overcast
2:15 AM 21.2 °F - 19.4 °F 93% 30.39 in 10.0 mi Calm Calm - N/A   Overcast
2:35 AM 21.2 °F - 17.6 °F 86% 30.39 in 10.0 mi Calm Calm - N/A   Overcast
2:55 AM 21.2 °F - 17.6 °F 86% 30.40 in 10.0 mi Calm Calm - N/A   Overcast
3:15 AM 21.2 °F - 17.6 °F 86% 30.39 in 10.0 mi Calm Calm - N/A   Overcast
3:35 AM 21.2 °F - 17.6 °F 86% 30.40 in 10.0 mi Calm Calm - N/A   Overcast
3:55 AM 21.2 °F - 17.6 °F 86% 30.39 in 10.0 mi Calm Calm - N/A   Overcast
4:15 AM 21.2 °F - 17.6 °F 86% 30.39 in 10.0 mi Calm Calm - N/A   Overcast
4:35 AM 21.2 °F 16.4 °F 17.6 °F 86% 30.39 in 10.0 mi North 3.5 mph - N/A   Overcast
5:35 AM 21.2 °F 16.4 °F 19.4 °F 93% 30.40 in 10.0 mi North 3.5 mph - N/A   Overcast
6:35 AM 21.2 °F - 19.4 °F 93% 30.40 in 9.0 mi Calm Calm - N/A   Overcast
6:52 AM 21.2 °F - 19.4 °F 93% 30.40 in 8.0 mi Calm Calm - N/A   Mostly Cloudy
7:53 AM 21.2 °F - 19.4 °F 93% 30.40 in 4.0 mi Calm Calm - N/A   Haze
8:55 AM 23.0 °F - 21.2 °F 93% 30.41 in 4.0 mi Calm Calm - N/A   Haze
9:55 AM 24.8 °F - 21.2 °F 86% 30.41 in 5.0 mi Calm Calm - N/A   Haze
10:51 AM 24.8 °F - 19.4 °F 80% 30.41 in 8.0 mi Calm Calm - N/A   Overcast
11:51 AM 26.6 °F - 21.2 °F 80% 30.41 in 8.0 mi Calm Calm - N/A   Overcast
12:52 PM 26.6 °F - 21.2 °F 80% 30.39 in 8.0 mi Calm Calm - N/A   Overcast
1:51 PM 26.6 °F - 19.4 °F 74% 30.37 in 10.0 mi Calm Calm - N/A   Overcast
2:52 PM 26.6 °F - 21.2 °F 80% 30.36 in 10.0 mi Calm Calm - N/A   Overcast
3:51 PM 26.6 °F 21.2 °F 21.2 °F 80% 30.35 in 10.0 mi NNE 4.6 mph - N/A   Overcast
5:58 PM 24.8 °F 15.3 °F 21.2 °F 86% 30.34 in 10.0 mi North 9.2 mph - N/A   Overcast
6:59 PM 24.8 °F 16.1 °F 21.2 °F 86% 30.32 in 10.0 mi North 8.1 mph - N/A   Overcast
7:58 PM 24.8 °F 16.9 °F 21.2 °F 86% 30.32 in 10.0 mi North 6.9 mph - N/A   Overcast
8:51 PM 24.8 °F 19.1 °F 21.2 °F 86% 30.31 in 10.0 mi NNW 4.6 mph - N/A   Overcast
8:55 PM 24.8 °F 20.5 °F 21.2 °F 86% 30.31 in 10.0 mi North 3.5 mph - N/A   Overcast
9:15 PM 24.8 °F 19.1 °F 21.2 °F 86% 30.31 in 10.0 mi North 4.6 mph - N/A   Overcast
9:35 PM 24.8 °F 17.9 °F 21.2 °F 86% 30.31 in 10.0 mi North 5.8 mph - N/A   Overcast
9:55 PM 24.8 °F 19.1 °F 21.2 °F 86% 30.30 in 7.0 mi North 4.6 mph - N/A   Overcast
10:15 PM 24.8 °F 20.5 °F 21.2 °F 86% 30.30 in 4.0 mi North 3.5 mph - N/A   Overcast
10:35 PM 24.8 °F - 21.2 °F 86% 30.30 in 2.5 mi Calm Calm - N/A   Overcast
10:55 PM 24.8 °F - 21.2 °F 86% 30.30 in 2.5 mi Calm Calm - N/A   Overcast
11:15 PM 24.8 °F - 21.2 °F 86% 30.29 in 3.0 mi Calm Calm - N/A   Overcast
11:35 PM 24.8 °F - 21.2 °F 86% 30.28 in 2.5 mi Calm Calm - N/A   Overcast